Regional Weather Roundup
Issued by NWS

Home | Current Version | Previous Version | Graphics & Text | Print | Product List | Glossary On
Versions: 1 2 3 4 5 6 7 8 9 10 11 12 13 14 15 16 17 18 19 20 21 22 23 24 25 26 27 28 29 30 31 32 33 34 35 36 37 38 39 40 41 42 43 44 45 46 47 48 49 50
000
ASUS43 KMPX 230801
RWRMN
WEATHER ROUNDUP FOR MINNESOTA
NATIONAL WEATHER SERVICE TWIN CITIES/CHANHASSEN MN
300 AM CDT WED JUL 23 2014


NOTE: "FAIR" INDICATES FEW OR NO CLOUDS BELOW 12,000 FEET WITH NO
SIGNIFICANT WEATHER AND/OR OBSTRUCTIONS TO VISIBILITY. N/A MEANS
CURRENT SKY AND/OR WEATHER CONDITIONS ARE NOT AVAILABLE.

MNZ060>063-068>070-230900-
   Twin Cities Metro

CITY           SKY/WX    TMP DP  RH WIND       PRES   REMARKS
TWIN CITIES    CLEAR     67  56  67 N7        30.18S
ST PAUL          N/A     65  57  75 CALM      30.18S
CRYSTAL        CLEAR     65  55  70 N5        30.18S
BLAINE         CLEAR     64  57  77 CALM      30.19S
LAKEVILLE      CLEAR     61  55  82 N5        30.18S
EDEN PRAIRIE   CLEAR     64  56  75 N6        30.17S
SOUTH ST PAUL  CLEAR     67  56  70 N5        30.18R
LAKE ELMO      FAIR      63  57  82 CALM      30.19S
$$
MNZ001>005-007-008-013>017-022>024-027-028-230900-
   Northwest Minnesota

CITY           SKY/WX    TMP DP  RH WIND       PRES   REMARKS
BEMIDJI        CLEAR     53  51  94 NW5       30.25S
HALLOCK        PTCLDY    61  57  88 N5        30.28R
ROSEAU         CLEAR     55  52  88 NW3       30.26S
WARROAD        CLEAR     57  54  88 NW7       30.26S
THIEF RVR FALL CLEAR     59  55  88 CALM      30.27S
CROOKSTON      CLEAR     61  55  82 N3        30.26F
FOSSTON        CLEAR     54  52  94 CALM      30.27S
DETROIT LAKES  PTCLDY    61  55  82 N5        30.27F
MOORHEAD       PTCLDY    59  59 100 CALM      30.26S
PARK RAPIDS    CLEAR     54  52  93 CALM      30.25S
$$
MNZ006-009>011-018-025>026-230900-
   North Central Minnesota

CITY           SKY/WX    TMP DP  RH WIND       PRES   REMARKS
BAUDETTE       CLEAR     58  56  93 N3        30.25R
FLAG ISLAND    PTCLDY    63  57  82 E3        30.24R
INTL FALLS     CLEAR     59  54  83 NE5       30.23R
WASKISH        CLEAR     61  55  82 NW3       30.24S
BIG FORK       CLEAR     54  52  94 NW2       30.23S
LONGVILLE      CLEAR     55  54  94 CALM      30.23S
GRAND RAPIDS   CLEAR     55  52  88 CALM      30.22R
CRANE LAKE     PTCLDY    52  52 100 CALM      30.23S
ORR            MOCLDY    54  52  94 CALM      30.20S
COOK           PTCLDY    54  52  94 CALM      30.22S
$$
MNZ012-019>021-037-230900-
   Northeast Minnesota

CITY           SKY/WX    TMP DP  RH WIND       PRES   REMARKS
DULUTH         PTCLDY    60  52  74 N8        30.19S
ELY            PTCLDY    54  52  94 CALM      30.21R
HIBBING        CLEAR     56  52  86 NW3       30.21R
DULUTH HARBOR  PTCLDY    63  55  77 NW10      30.17S
TWO HARBORS    CLEAR     59  52  77 N3        30.17R
SILVER BAY     CLEAR     55  55 100 CALM      30.17S
GRAND MARAIS     N/A     57  52  83 NE3       30.16R
G MARAIS ARPRT CLEAR     52  48  87 N5        30.20S
$$
MNZ029>031-032-039>041-046>048-054>057-064-230900-
   West Central Minnesota

CITY           SKY/WX    TMP DP  RH WIND       PRES   REMARKS
FERGUS FALLS   CLEAR     63  54  72 N6        30.25F
WHEATON        CLEAR     57  55  94 CALM      30.27F
MORRIS         CLEAR     57  55  94 CALM      30.24S
ALEXANDRIA     PTCLDY    62  58  86 N3        30.26S
ELBOW LAKE     FAIR      60  56  89 N3        30.24F
WADENA         CLEAR     57  55  94 NW3       30.25S
GLENWOOD       CLEAR     59  55  88 N5        30.25R
APPLETON       CLEAR     57  54  88 CALM      30.25R
BENSON         CLEAR     55  54  94 CALM      30.25R
ORTONVILLE     CLEAR     63  55  77 CALM      30.25F
MADISON        CLEAR     61  57  88 W5        30.25R
WILLMAR        FAIR      61  54  77 N5        30.25S
$$
MNZ033>034-036-042>043-049>051-058-059-230900-
   Central Minnesota

CITY           SKY/WX    TMP DP  RH WIND       PRES   REMARKS
ST CLOUD       CLEAR     59  54  83 NW5       30.21S
SAUK CENTRE    FAIR      58  54  85 NW5       30.25R
PAYNESVILLE    CLEAR     56  52  87 S3        30.24R
AITKIN         CLEAR     54  48  82 CALM      30.21S
PINE RIVER     CLEAR     55  54  94 CALM      30.27R
BRAINERD       CLEAR     57  54  89 CALM      30.23S
STAPLES        CLEAR     55  52  88 CALM      30.24S
LONG PRAIRIE   FAIR      57  52  82 NW3       30.25R
LITTLE FALLS   CLEAR     54  52  94 CALM      30.23R
LITCHFIELD     PTCLDY    63  57  82 NW5       30.23R
BUFFALO        CLEAR     64  54  69 N5        30.21S
MAPLE LAKE     CLEAR     63  55  77 NW5       30.22S
$$
MNZ037-044-045-052-053-230900-
   East Central Minnesota

CITY           SKY/WX    TMP DP  RH WIND       PRES   REMARKS
PRINCETON      CLEAR     59  55  88 CALM      30.21R
MORA           CLEAR     55  52  88 CALM      30.22S
CAMBRIDGE      CLEAR     61  52  72 CALM      30.18S
RUSH CITY      PTCLDY    59  54  85 CALM      30.20S
MOOSE LAKE     CLEAR     54  52  94 CALM      30.18S
HINCKLEY       FAIR      59  55  88 NW3       30.19S
CLOQUET        CLEAR     55  52  88 NW5       30.20R
MCGREGOR       CLEAR     54  52  94 CALM      30.22S
$$
MNZ071>073-080-081-089-090-097-098-230900-
   Southwest Minnesota

CITY           SKY/WX    TMP DP  RH WIND       PRES   REMARKS
MONTEVIDEO     CLEAR     61  54  77 N6        30.26R
GRANITE FALLS  CLEAR     56  54  91 W5        30.26R
CANBY          CLEAR     57  55  92 NW5       30.27R
MARSHALL       CLEAR     57  52  82 NW8       30.24S
REDWOOD FALLS  CLEAR     63  57  81 N6        30.22S
OLIVIA         CLEAR     57  54  88 NW5       30.22S
PIPESTONE      PTCLDY    61  54  77 CALM      30.26S
WINDOM         CLEAR     59  55  88 N7        30.23F
WORTHINGTON    CLEAR     57  54  88 N8        30.25S
JACKSON        CLEAR     59  54  82 N3        30.22F
TRACY          CLEAR     60  56  87 NW6       30.24F
SLAYTON        CLEAR     59  55  87 CALM      30.25F
$$
MNZ065>067-074>077-082>085-091>093-230900-
   South Central Minnesota

CITY           SKY/WX    TMP DP  RH WIND       PRES   REMARKS
MANKATO        CLEAR     63  54  72 NW6       30.20S
NEW ULM        CLEAR     59  57  94 NW7       30.21R
ST JAMES       CLEAR     57  55  94 NW3       30.23R
FAIRMONT       CLEAR     61  54  77 NW6       30.21R
GLENCOE        CLEAR     62  54  73 NW5       30.20S
FARIBAULT      CLEAR     64  55  72 CALM      30.19S
OWATONNA       CLEAR     61  55  82 CALM      30.19F
WASECA         CLEAR     57  52  82 N3        30.20F
ALBERT LEA     CLEAR     63  55  77 N5        30.19S
$$
MNZ078>079-086>088-094>096-230900-
   Southeast Minnesota

CITY           SKY/WX    TMP DP  RH WIND       PRES   REMARKS
ROCHESTER      CLEAR     62  56  80 N6        30.20R
RED WING       CLEAR     64  57  77 CALM      30.17R
STANTON        CLEAR     61  56  85 CALM      30.17S
DODGE CENTER   CLEAR     61  55  82 N5        30.19R
WINONA         PTCLDY    70  63  78 CALM      30.17R
AUSTIN         CLEAR     63  55  77 CALM      30.18R
PRESTON        CLEAR     62  62  98 N7        30.18R
$$
ABBREVIATIONS USED IN REMARKS
   TC - TEMPERATURES IN CELSIUS
  WCI - WIND CHILL INDEX
   HX - HEAT INDEX
  VSB - VISIBILITY
$$


USA.gov is the U.S. government's official web portal to all federal, state and local government web resources and services.